This is the latest recevied weather packets stored in our database for station/object F5ZQC-13. If no packets are shown the sender has not sent any weather packets the latest 10 day(s).
| Time | Temp. | Humidity | Pressure | Rain* | Wind** | Luminosity | Snow |
|---|---|---|---|---|---|---|---|
| 1777600137 | 16.67° C | 58% | 1016.9 hPa | 0 mm | - | - | - |
| 1777599929 | 16.67° C | 59% | 1016.8 hPa | 0 mm | - | - | - |
| 1777599845 | 16.67° C | 58% | 1016.7 hPa | 0 mm | - | - | - |
| 1777599805 | 16.67° C | 58% | 1016.7 hPa | 0 mm | - | - | - |
| 1777599378 | 16.67° C | 57% | 1016.9 hPa | 0 mm | - | - | - |
| 1777599333 | 16.67° C | 57% | 1016.7 hPa | 0 mm | - | - | - |
| 1777599242 | 16.67° C | 58% | 1016.7 hPa | 0 mm | - | - | - |
| 1777599209 | 16.67° C | 58% | 1016.7 hPa | 0 mm | - | - | - |
| 1777598721 | 16.67° C | 55% | 1016.7 hPa | 0 mm | - | - | - |
| 1777598476 | 16.67° C | 57% | 1016.7 hPa | 0 mm | - | - | - |
| 1777598354 | 16.67° C | 59% | 1016.3 hPa | 0 mm | - | - | - |
| 1777598199 | 16.67° C | 58% | 1016.9 hPa | 0 mm | - | - | - |
| 1777598152 | 16.67° C | 58% | 1016.9 hPa | 0 mm | - | - | - |
| 1777598028 | 16.67° C | 58% | 1017 hPa | 0 mm | - | - | - |
| 1777597907 | 16.67° C | 56% | 1016.8 hPa | 0 mm | - | - | - |
| 1777597365 | 16.67° C | 57% | 1016.9 hPa | 0 mm | - | - | - |
| 1777597122 | 16.67° C | 59% | 1016.8 hPa | 0 mm | - | - | - |
| 1777596999 | 17.22° C | 58% | 1017.1 hPa | 0 mm | - | - | - |
| 1777596917 | 17.22° C | 59% | 1017 hPa | 0 mm | - | - | - |
| 1777596876 | 17.22° C | 59% | 1017 hPa | 0 mm | - | - | - |
| 1777596641 | 17.22° C | 58% | 1017.1 hPa | 0 mm | - | - | - |
| 1777596550 | 17.22° C | 57% | 1017.1 hPa | 0 mm | - | - | - |
| 1777596518 | 17.22° C | 57% | 1017.1 hPa | 0 mm | - | - | - |
| 1777596397 | 17.22° C | 58% | 1017.1 hPa | 0 mm | - | - | - |
| 1777596275 | 17.22° C | 58% | 1016.9 hPa | 0 mm | - | - | - |
* Rain since midnight (hover to see other rain measurements)
** Current wind speed in m/s (hover to see current wind gust speed)